Alpena, MI

1:12 PM EST on February 07, 2016 (GMT -0500)
Alpena County Regional

Weather History for KAPN - August, 2013

Change the Weather History Date:

Friday, August 23, 2013

  Actual Average Record
Temperature  
Mean Temperature 62 °F 64 °F  
Max Temperature 75 °F 76 °F 95 °F (1947)
Min Temperature 49 °F 53 °F 30 °F (1934)
Degree Days  
Heating Degree Days 3 3  
Month to date heating degree days 55 45  
Since 1 June heating degree days 244 232  
Since 1 July heating degree days 108 89  
Cooling Degree Days 0 2  
Month to date cooling degree days 44 64  
Year to date cooling degree days 250 249  
Since 1 June cooling degree days 237 236  
Growing Degree Days 13 (Base 50)    
Moisture  
Dew Point 53 °F    
Average Humidity 70    
Maximum Humidity 96    
Minimum Humidity 44    
Precipitation  
Precipitation 0.00 in 0.11 in 1.69 in (1998)
Month to date precipitation 0.77 2.37  
Year to date precipitation 21.26 17.92  
Sea Level Pressure  
Sea Level Pressure 30.19 in    
Wind  
Wind Speed 4 mph (ENE)    
Max Wind Speed 14 mph    
Max Gust Speed 31 mph    
Visibility 10 miles    
Events      
T = Trace of Precipitation, MM = Missing Value Source: NWS Daily Summary

Daily Weather History Graph

Daily Weather History Graph

Search for Another Location

Airport or City:

Trip Planner

Search our weather history database for the weather conditions in past years. The results will help you decide how hot, cold, wet, or windy it might be!

Date:

Astronomy

Aug. 23, 2013 Rise Set
Actual Time 6:45 AM EDT 8:27 PM EDT
Civil Twilight 6:14 AM EDT 8:58 PM EDT
Nautical Twilight 5:36 AM EDT 9:35 PM EDT
Astronomical Twilight 4:55 AM EDT 10:16 PM EDT
Moon 9:33 PM EDT (8/23) 9:50 AM EDT (8/23)
Length of Visible Light 14h 43m
Length of Day
13h 41m
Waning Gibbous, 91% of the Moon is Illuminated
Aug 23
Waning Gibbous
Aug 28
Last Quarter
Sep 5
New
Sep 12
First Quarter
Sep 19
Full

Hourly Weather History & Observations

Time (EDT) Temp. Dew Point Humidity Pressure Visibility Wind Dir Wind Speed Gust Speed Precip Events Conditions
12:54 AM 57.0 °F 48.9 °F 74% 30.12 in 10.0 mi WNW 4.6 mph - N/A   Clear
1:54 AM 55.0 °F 50.0 °F 83% 30.12 in 10.0 mi Calm Calm - N/A   Clear
2:54 AM 54.0 °F 50.0 °F 86% 30.12 in 10.0 mi West 3.5 mph - N/A   Clear
3:54 AM 53.1 °F 51.1 °F 93% 30.13 in 10.0 mi West 3.5 mph - N/A   Clear
4:54 AM 52.0 °F 50.0 °F 93% 30.14 in 10.0 mi Calm Calm - N/A   Clear
5:54 AM 51.1 °F 50.0 °F 96% 30.16 in 10.0 mi NW 4.6 mph - N/A   Clear
6:54 AM 51.1 °F 50.0 °F 96% 30.18 in 10.0 mi Calm Calm - N/A   Clear
7:54 AM 55.9 °F 53.1 °F 90% 30.19 in 10.0 mi Calm Calm - N/A   Clear
8:54 AM 64.9 °F 57.9 °F 78% 30.20 in 10.0 mi NNE 3.5 mph - N/A   Clear
9:54 AM 68.0 °F 55.9 °F 65% 30.22 in 10.0 mi ENE 5.8 mph - N/A   Clear
10:54 AM 70.0 °F 55.0 °F 59% 30.22 in 10.0 mi ENE 8.1 mph - N/A   Partly Cloudy
11:10 AM 69.8 °F 55.4 °F 60% 30.22 in 10.0 mi Calm Calm - N/A   Mostly Cloudy
11:34 AM 69.8 °F 55.4 °F 60% 30.23 in 10.0 mi East 8.1 mph - N/A   Mostly Cloudy
11:54 AM 71.1 °F 55.0 °F 57% 30.23 in 10.0 mi NNE 5.8 mph - N/A   Mostly Cloudy
12:54 PM 71.1 °F 54.0 °F 55% 30.23 in 10.0 mi Calm Calm - N/A   Overcast
1:54 PM 73.0 °F 55.9 °F 55% 30.22 in 10.0 mi East 10.4 mph - N/A   Partly Cloudy
2:54 PM 75.0 °F 55.9 °F 51% 30.22 in 10.0 mi East 9.2 mph - N/A   Scattered Clouds
3:54 PM 73.0 °F 54.0 °F 51% 30.21 in 10.0 mi SE 10.4 mph 16.1 mph N/A   Clear
4:54 PM 73.0 °F 51.1 °F 46% 30.20 in 10.0 mi East 5.8 mph 18.4 mph N/A   Clear
5:54 PM 72.0 °F 48.9 °F 44% 30.20 in 10.0 mi ENE 9.2 mph 17.3 mph N/A   Clear
6:54 PM 70.0 °F 50.0 °F 49% 30.20 in 10.0 mi East 6.9 mph - N/A   Clear
7:54 PM 66.0 °F 53.1 °F 63% 30.20 in 10.0 mi ESE 4.6 mph - N/A   Clear
8:54 PM 61.0 °F 54.0 °F 78% 30.21 in 10.0 mi South 3.5 mph - N/A   Clear
9:54 PM 57.9 °F 53.1 °F 84% 30.22 in 10.0 mi Calm Calm - N/A   Clear
10:54 PM 55.0 °F 52.0 °F 89% 30.24 in 10.0 mi Calm Calm - 0.00 in   Clear
11:54 PM 52.0 °F 50.0 °F 93% 30.25 in 10.0 mi Calm Calm - 0.00 in   Clear